Theta_e
303 304 305 306 306 306 306 307 307 307 308 308 309 309 309 310 310 310 310 310 311 312 314 316 318 320 321 322 322 323 322 322 322 322 323 322 322 323 323 324 324 324 324 324 323 323 323 323 323 323 323 322 322 321 321 321 320 320 321 320 319 318 317 315 313 309 306 304 301 298 298 298 298 299 299 300 301 301 301 301 301 301 302 302 302
303 304 305 305 306 306 307 307 307 307 307 308 308 308 308 308 308 309 309 310 310 310 312 312 313 315 316 318 319 319 319 320 319 320 320 320 321 321 321 321 322 323 323 322 322 322 322 322 321 321 320 319 319 319 319 320 319 319 320 320 319 318 317 316 314 311 307 305 302 299 298 298 298 298 299 299 299 300 301 301 301 301 301 301 301
303 304 304 305 305 306 307 307 307 307 307 307 307 307 307 307 307 308 308 308 308 309 309 310 310 311 312 313 313 314 314 314 315 316 316 317 318 319 319 319 320 320 320 320 319 319 319 319 319 318 318 318 317 317 318 318 318 319 319 319 318 317 316 315 314 313 309 306 302 300 298 298 298 298 299 299 299 299 300 300 300 301 301 301 301
304 304 304 305 305 306 307 307 307 307 308 308 308 308 307 307 307 307 307 307 307 307 307 308 308 309 309 310 309 310 310 309 309 310 310 311 311 313 314 315 316 316 316 317 317 317 317 316 316 316 316 316 316 316 317 317 317 317 318 317 317 316 315 314 314 313 311 308 303 299 298 297 297 298 298 299 299 299 299 299 300 300 300 301 301
304 304 305 306 306 307 307 307 308 308 308 308 308 308 308 308 308 308 308 308 308 307 307 307 307 307 307 307 307 307 307 307 307 306 306 306 307 307 307 309 310 311 311 312 312 313 313 313 313 313 314 315 315 315 315 315 314 315 315 315 315 315 314 314 313 311 311 310 306 301 299 297 297 298 298 298 298 299 299 299 299 300 300 300 300
304 304 305 306 306 306 306 307 307 307 308 308 307 308 308 308 307 308 308 307 308 307 307 307 307 307 307 307 307 306 306 306 306 305 305 305 305 305 305 305 305 305 305 305 306 306 307 308 309 310 312 313 314 314 313 313 313 312 312 312 312 312 312 311 311 310 310 309 307 304 301 299 298 297 297 298 298 298 299 299 299 299 299 299 300
303 304 304 305 305 305 306 306 306 306 306 306 306 307 307 307 307 307 307 307 307 307 307 307 307 307 307 307 307 306 306 306 305 304 304 304 304 304 304 304 304 304 303 303 303 304 304 305 306 307 309 310 311 312 312 312 312 312 311 311 310 310 309 309 309 309 308 308 307 305 303 301 299 297 297 297 298 298 298 298 299 299 299 299 299
302 303 303 304 304 305 305 304 304 305 305 305 306 306 306 306 306 306 306 306 306 306 306 306 306 306 306 306 306 306 306 305 304 304 304 304 304 304 304 304 304 303 303 303 303 303 303 303 303 304 305 306 308 309 310 310 310 311 311 310 310 309 308 307 307 307 307 307 306 305 304 302 300 298 298 297 297 297 297 297 298 298 298 299 299
300 301 302 303 303 303 303 304 304 304 304 305 305 305 305 305 305 305 305 305 304 304 304 304 304 304 305 305 305 305 305 304 304 304 304 304 304 304 304 304 303 303 303 303 302 302 302 302 302 302 302 303 304 305 306 307 308 309 309 309 309 308 307 306 305 305 305 306 306 305 304 303 302 300 299 297 297 297 297 297 297 298 298 298 299
299 300 301 301 302 302 302 303 303 303 304 304 304 304 304 304 304 304 304 303 303 303 303 303 303 303 303 303 304 304 304 303 303 303 303 303 303 303 303 303 303 303 303 302 302 301 301 301 301 301 301 301 301 302 302 303 304 306 306 307 307 307 306 305 305 304 304 304 304 304 303 303 303 302 301 299 298 297 297 297 297 297 297 298 298
299 299 300 300 301 301 302 302 303 303 303 303 303 303 303 303 303 303 303 302 302 302 302 302 302 302 302 302 302 303 303 303 303 303 303 302 303 302 302 302 302 302 302 302 302 301 301 301 301 301 301 301 301 301 301 301 301 302 303 304 305 306 306 305 305 304 304 303 303 302 302 302 303 302 302 301 300 298 297 297 297 297 297 297 297
298 299 299 300 300 301 301 302 302 302 302 302 302 302 302 302 302 302 302 302 302 302 302 302 302 302 301 301 301 301 301 302 302 302 302 302 302 301 301 301 301 301 301 301 301 301 301 301 301 300 300 300 300 300 300 300 300 300 300 301 302 303 303 303 304 304 304 303 303 302 302 302 302 301 301 301 301 300 298 297 297 297 297 297 297
297 298 299 299 300 301 301 302 302 302 301 301 301 301 301 301 300 301 301 301 301 301 301 301 301 301 301 301 300 300 300 300 300 300 299 299 299 299 300 300 299 299 299 299 299 299 300 300 300 300 300 300 300 300 299 299 299 299 299 300 300 300 300 301 301 301 302 302 302 302 302 302 301 301 300 299 300 300 298 297 297 297 296 296 297
298 298 299 300 300 301 301 301 301 301 301 300 300 300 300 300 300 300 300 300 300 300 300 300 300 300 300 300 299 298 298 297 297 297 296 296 295 296 296 296 296 295 295 295 295 295 296 296 297 298 298 299 299 299 299 299 299 299 298 298 299 299 299 299 299 299 300 300 300 301 301 301 301 300 299 298 298 298 298 297 297 296 296 296 296
298 299 299 300 300 301 301 301 300 300 300 300 300 299 299 299 298 298 298 298 298 298 298 298 298 298 298 298 298 297 297 296 295 294 293 293 293 292 293 293 292 292 292 291 291 292 292 292 292 293 293 294 295 296 297 297 298 298 298 298 298 298 298 298 298 298 298 299 299 299 300 300 300 300 299 299 298 298 297 297 296 296 296 296 296
298 299 300 300 300 300 300 300 300 300 300 299 298 297 297 296 296 296 296 296 295 295 295 295 295 295 295 295 295 295 294 294 293 292 292 291 291 291 291 290 290 290 290 290 290 290 290 290 290 290 290 290 290 291 291 292 293 295 296 296 297 297 297 297 297 297 298 298 298 298 298 299 299 299 299 298 298 298 297 297 296 296 295 295 296
299 299 300 300 300 300 300 300 300 299 298 297 295 294 294 294 294 294 293 293 293 293 293 293 293 293 293 292 292 292 292 291 291 291 290 290 290 290 290 289 289 289 289 289 289 289 289 289 289 289 289 289 289 289 289 289 289 290 291 292 293 293 294 295 295 296 297 297 297 297 297 297 298 298 298 298 298 297 297 297 297 296 295 295 295
299 299 300 300 300 300 300 300 299 297 295 294 293 293 292 292 292 292 292 292 292 292 292 291 291 291 291 291 290 290 290 290 290 289 289 289 289 289 289 289 289 289 289 289 289 289 289 289 289 289 289 289 289 288 288 288 288 288 289 289 289 289 290 291 291 292 293 294 295 296 296 297 297 297 297 297 297 297 297 296 296 296 296 295 295
299 300 300 300 300 300 299 298 297 295 294 293 292 292 292 292 292 292 292 292 291 291 291 291 291 290 290 290 289 289 289 289 289 288 288 288 289 289 289 288 289 289 289 289 289 289 289 289 288 288 288 288 288 288 288 288 288 288 288 288 288 288 288 289 289 289 289 290 291 293 294 295 296 296 296 296 296 296 296 296 296 296 296 295 295
300 301 300 300 300 299 297 296 295 294 293 292 292 291 291 291 292 292 292 292 291 291 291 290 290 289 289 289 289 289 288 288 288 288 288 288 288 288 288 288 288 288 288 288 288 288 288 288 288 288 288 288 288 288 288 287 288 288 288 288 288 287 287 288 288 288 288 288 288 289 290 291 293 294 295 296 296 296 296 296 296 296 296 295 295
301 301 301 300 299 297 296 295 294 293 292 292 291 291 291 291 291 291 291 291 290 290 290 289 289 289 288 288 288 288 288 288 288 288 288 288 288 288 288 288 288 288 288 287 287 287 287 287 288 288 288 288 288 287 287 287 287 287 287 287 287 287 287 287 287 287 287 287 287 287 288 288 288 290 291 293 295 296 295 295 295 295 295 295 295
301 301 300 299 297 295 295 294 293 293 292 291 291 290 291 290 290 290 290 290 289 289 289 288 288 288 288 288 288 288 288 288 288 288 288 288 288 287 287 287 287 287 287 287 287 287 287 287 287 287 287 287 287 287 287 287 287 287 287 287 286 286 286 287 287 287 287 287 287 287 287 287 287 287 288 289 291 293 294 295 295 295 295 295 295
301 300 299 297 295 295 295 294 293 293 292 291 291 290 290 290 290 289 289 289 289 289 288 288 288 288 288 288 288 288 288 288 288 288 288 287 287 287 287 287 287 287 286 286 286 286 286 286 286 286 286 286 286 286 286 286 287 287 287 287 287 287 286 286 286 286 286 286 287 287 286 287 287 287 287 287 287 288 290 292 294 295 295 295 295
300 299 297 296 295 295 295 295 294 293 292 291 290 290 290 289 289 289 288 288 288 288 288 288 288 288 288 288 288 288 288 288 288 288 288 288 287 287 287 287 287 286 286 286 286 286 286 286 286 286 286 286 286 286 286 286 286 286 286 286 286 287 286 287 287 286 286 286 286 286 287 286 286 286 286 287 287 287 287 288 289 291 293 294 295
299 297 296 295 295 295 295 295 295 294 293 291 290 290 289 289 289 288 288 288 288 288 288 288 288 288 288 288 288 288 288 288 288 288 288 288 287 287 287 287 287 286 286 286 286 286 286 286 286 286 286 286 286 286 286 286 286 286 286 286 286 286 286 286 286 286 286 286 286 286 286 286 286 286 286 286 286 286 286 287 287 287 289 291 293
299 297 296 295 295 295 295 295 295 294 292 290 290 289 289 289 288 288 288 288 288 288 288 288 288 288 288 288 288 288 288 288 288 288 288 288 287 287 287 287 286 286 286 286 286 286 286 286 286 286 286 286 286 286 286 286 286 286 286 285 285 285 285 285 285 286 286 286 286 286 286 286 286 286 286 286 286 286 286 286 286 287 287 287 289
299 297 296 295 295 295 295 295 295 292 290 289 289 289 288 288 288 288 288 288 288 288 288 289 289 289 289 289 289 289 288 288 288 288 288 287 287 287 287 286 286 286 286 286 286 286 286 286 286 286 286 286 286 286 286 286 285 285 285 285 285 285 285 285 285 285 285 285 285 285 286 286 286 286 286 286 286 286 286 286 286 286 286 286 286
298 297 296 295 295 295 295 295 293 290 289 289 289 289 288 288 288 288 289 289 289 289 289 289 289 289 289 289 289 289 288 288 288 288 288 287 287 287 286 286 285 285 285 285 285 286 286 286 286 286 286 286 286 286 286 285 285 284 284 283 284 284 284 284 284 284 284 284 285 285 285 285 285 285 285 285 285 285 285 285 286 285 285 286 286
298 297 296 296 295 295 295 293 291 289 289 289 289 289 289 289 289 289 289 289 289 289 289 289 289 289 289 289 289 289 288 288 288 288 288 287 287 286 286 285 285 285 285 285 285 285 285 285 285 285 285 285 285 285 285 285 284 284 283 282 282 282 282 282 282 283 284 284 285 285 285 285 285 285 285 285 285 285 284 285 285 285 285 285 285
298 297 296 296 296 295 293 291 290 290 290 290 290 290 290 290 290 290 290 289 289 289 289 289 289 289 289 289 289 289 288 288 288 288 287 286 286 285 285 285 285 285 285 285 285 285 285 285 285 285 285 285 285 285 285 284 283 282 281 281 281 280 280 280 280 281 282 283 283 284 284 284 285 284 284 285 284 284 284 284 284 285 285 285 285
297 297 296 296 296 294 292 291 291 291 291 291 291 291 291 290 290 290 289 289 289 289 289 289 289 289 289 289 288 288 288 288 288 287 286 285 284 284 284 284 284 284 284 284 284 285 285 285 285 285 285 285 285 285 284 283 283 282 280 279 279 279 280 280 280 280 281 281 282 282 282 283 284 284 284 284 284 284 284 284 284 284 284 284 285
297 296 296 295 294 293 293 292 292 292 292 291 291 291 291 290 290 290 290 290 289 289 289 289 289 288 288 288 288 288 288 287 287 286 284 284 284 283 283 283 283 283 284 284 284 284 284 284 284 284 284 284 285 284 283 282 282 281 280 278 278 278 279 279 279 279 279 280 280 281 281 281 282 282 283 283 284 284 284 284 284 284 284 284 284
295 295 294 294 293 293 293 292 292 292 291 291 291 291 290 290 290 290 290 289 289 289 289 289 289 288 288 287 287 287 286 286 285 284 283 283 283 283 283 283 283 283 284 284 284 284 284 284 283 283 283 283 283 283 281 280 280 279 278 277 277 277 278 278 278 278 278 278 279 279 279 280 280 280 281 281 282 283 283 284 284 284 284 284 284
293 293 292 292 292 292 292 291 291 291 291 290 291 291 290 290 290 290 290 289 289 289 289 288 288 287 287 286 286 286 285 284 283 283 283 283 283 283 283 283 283 283 283 284 284 284 283 283 282 282 282 282 282 280 278 278 277 276 276 275 275 275 276 277 277 278 277 278 278 277 277 278 279 279 279 279 280 281 281 282 283 283 283 284 284
292 291 291 291 291 291 290 290 290 290 290 290 290 290 290 290 290 289 289 289 289 289 288 287 287 286 286 285 285 284 283 283 283 282 282 282 282 282 283 283 283 283 283 283 283 283 282 282 281 280 280 281 280 278 276 276 275 274 273 273 272 273 274 274 276 276 276 276 277 277 277 277 277 278 278 278 278 279 280 281 281 282 282 283 283
291 291 291 291 291 290 290 290 290 290 290 289 289 289 289 290 290 289 289 289 288 288 287 287 286 286 285 284 283 283 283 282 282 282 282 282 282 282 282 282 282 282 282 282 282 282 281 281 280 279 278 279 278 276 274 274 273 272 272 271 271 272 272 273 274 274 274 274 275 275 275 275 275 276 276 276 277 278 278 279 280 281 281 282 283
291 291 291 291 291 290 290 290 290 290 289 289 289 289 289 289 289 289 289 288 288 287 287 286 286 285 284 283 283 282 282 282 282 282 282 282 282 282 282 281 281 282 282 281 281 281 280 279 279 278 277 277 277 275 273 273 272 271 271 271 270 271 271 271 271 272 272 272 272 272 273 273 273 274 274 274 275 276 276 277 278 279 280 281 282
291 291 291 290 290 290 290 290 290 289 289 289 289 289 289 288 288 288 288 288 288 287 287 286 285 284 283 282 282 282 282 281 281 281 282 282 282 282 281 280 281 281 281 281 280 280 279 278 277 276 275 274 274 273 272 272 272 271 271 270 269 269 269 269 269 269 270 270 270 270 271 271 272 272 273 274 274 275 275 276 277 277 278 279 280
291 290 290 290 290 290 290 290 289 289 289 289 289 288 288 288 287 287 288 287 287 287 286 285 284 283 282 282 282 281 281 281 281 281 282 282 281 281 280 280 280 280 280 280 279 279 278 277 275 274 273 272 273 272 272 271 271 271 270 270 268 268 268 268 268 268 269 269 269 269 269 270 271 272 272 273 274 275 275 275 276 276 277 278 279
290 290 290 290 290 289 290 289 289 289 289 289 288 288 287 287 287 287 287 287 287 286 285 284 283 282 282 282 281 281 281 281 281 281 281 281 280 280 280 280 280 279 279 279 278 277 276 275 274 273 273 272 272 272 272 271 271 271 270 269 268 268 268 268 268 268 268 268 269 269 270 270 271 272 272 273 273 274 275 275 275 275 275 276 277
290 290 289 289 289 289 289 289 289 289 289 288 288 287 287 287 287 287 287 287 286 285 283 283 282 282 282 281 281 281 281 281 281 281 281 280 280 280 280 279 279 278 278 278 277 275 274 274 273 273 272 272 272 272 271 271 270 270 270 269 268 268 268 268 268 268 269 269 269 270 270 270 271 271 272 272 273 274 274 275 275 275 275 276 276
289 289 289 289 289 289 289 289 289 289 288 288 288 287 287 287 287 287 287 286 285 283 283 282 282 281 281 281 281 280 280 280 280 280 280 280 280 279 279 278 278 278 277 276 275 274 273 273 273 273 273 272 272 272 271 271 270 270 270 269 268 268 268 269 269 269 269 269 270 270 270 270 271 271 271 272 272 273 273 274 275 275 276 277 277
289 289 289 289 289 289 289 289 289 288 288 288 287 286 286 286 286 286 286 285 284 283 282 282 282 281 281 280 280 280 280 280 280 279 279 279 279 279 278 277 277 277 276 275 274 273 273 273 273 273 273 273 272 272 271 271 270 270 270 270 269 269 269 270 270 270 270 270 270 271 271 271 271 272 272 272 273 273 274 274 274 275 275 276 277
289 289 289 289 289 289 288 288 288 288 287 287 286 286 286 286 286 286 285 284 283 282 282 282 281 281 280 280 280 280 280 279 279 279 279 279 279 278 278 277 276 276 275 274 274 273 273 273 273 273 273 273 272 271 272 271 270 270 270 270 270 270 270 271 271 271 271 272 272 272 272 273 273 273 273 273 273 274 274 274 274 275 275 276 277
289 289 289 289 288 288 288 288 288 288 287 287 286 286 286 286 285 285 284 283 282 282 282 281 281 280 280 280 280 280 279 279 279 279 279 279 278 277 277 276 276 275 274 274 273 273 273 273 272 271 271 271 271 270 271 270 269 269 270 270 271 271 271 271 271 272 272 272 273 273 273 274 274 274 274 274 273 273 273 273 274 274 275 275 276
289 289 289 288 288 288 288 288 288 287 287 286 286 286 286 285 285 284 283 282 282 281 281 281 280 280 279 279 279 279 279 279 279 278 278 278 277 277 276 276 275 274 274 273 273 273 273 272 270 269 269 269 268 268 269 269 269 269 270 271 271 271 272 272 272 272 272 273 273 273 274 274 274 274 274 273 273 273 273 273 274 274 274 275 275
289 288 288 288 288 288 288 287 287 287 286 286 285 285 285 284 284 282 282 281 281 281 281 280 280 279 279 279 279 279 279 279 279 278 278 277 276 276 276 275 275 274 274 273 273 272 271 269 268 267 268 268 268 268 268 268 269 269 270 271 272 272 272 273 273 273 273 273 274 274 274 274 274 274 274 274 274 274 274 274 274 274 274 274 275
288 288 288 288 288 288 287 287 286 286 286 285 285 285 284 284 282 281 281 281 281 280 280 280 279 279 279 278 278 278 278 278 278 278 277 277 276 276 275 275 275 274 274 273 272 270 268 267 267 267 268 268 268 268 268 269 269 270 271 272 272 273 273 273 273 274 274 274 274 274 274 274 274 274 274 274 274 274 274 274 274 273 274 274 275
288 288 288 288 287 287 287 286 286 286 285 285 284 284 283 282 281 281 281 281 280 280 280 279 279 278 278 278 278 278 278 278 278 277 277 276 276 276 275 275 275 274 274 273 271 268 267 268 268 268 268 268 268 269 269 270 271 272 273 273 273 274 274 274 274 274 275 275 275 275 275 274 274 274 274 274 274 274 274 274 274 274 274 274 275
288 288 288 287 287 287 286 286 285 285 285 284 284 283 282 281 281 281 280 280 280 280 279 279 278 278 278 277 277 277 277 277 277 277 277 276 276 276 275 275 275 274 274 273 271 269 268 268 268 268 268 268 268 269 269 270 271 272 274 274 274 274 274 274 275 275 275 275 275 275 275 275 274 274 274 274 274 274 274 274 274 274 274 274 275
288 288 287 287 287 286 286 285 285 284 284 283 283 282 281 280 280 280 280 280 279 279 279 278 278 278 277 277 277 277 277 277 277 276 276 276 276 276 276 276 275 274 274 274 273 272 271 270 269 269 268 268 269 270 269 270 271 272 274 274 274 274 275 275 275 275 275 275 275 275 274 274 274 274 274 274 274 274 274 275 275 275 275 275 275
Wind_Speed
10 8 7 6 5 5 5 5 5 5 6 5 4 4 5 4 3 3 3 2 3 5 6 7 7 8 8 9 9 10 10 10 10 9 10 10 11 12 12 11 10 11 12 14 16 18 19 20 21 23 24 25 27 28 28 27 26 26 27 28 29 30 30 29 29 29 30 31 32 33 34 35 36 37 37 36 36 36 36 35 33 31 30 29 27
11 11 11 11 11 12 12 12 12 11 12 10 10 11 10 10 10 10 9 7 6 5 3 3 4 5 6 8 9 10 11 11 11 11 10 11 11 12 12 12 11 11 12 12 14 15 16 18 19 21 23 24 25 26 27 27 26 26 27 29 30 30 30 30 29 30 30 31 32 33 34 36 38 39 39 39 39 38 38 37 35 34 34 32 30
16 17 18 19 19 20 21 22 22 22 22 21 20 20 18 18 18 17 16 15 14 12 10 8 6 5 3 4 5 6 8 9 9 10 10 11 12 13 14 14 15 16 17 17 18 18 19 20 20 20 20 21 23 24 25 26 26 27 28 29 30 31 31 30 30 31 31 31 31 32 32 32 35 38 40 41 41 40 39 39 38 37 36 34 33
20 22 23 24 25 27 28 30 29 29 29 29 28 27 26 25 23 21 21 20 19 17 15 13 11 9 8 6 4 3 4 5 6 6 7 8 9 11 12 14 15 17 19 20 21 22 23 23 23 22 20 19 19 22 24 25 26 27 28 28 30 31 32 32 31 31 32 31 30 30 29 27 29 34 38 38 39 40 40 41 40 39 38 37 36
24 26 27 28 29 30 31 31 31 30 31 30 29 28 27 26 25 24 23 22 21 20 18 16 13 12 11 9 7 6 5 6 6 5 4 4 4 5 7 9 11 13 16 18 19 21 23 24 24 23 22 20 18 18 19 21 23 25 26 28 30 31 32 32 32 32 32 33 33 31 27 24 25 29 32 32 33 35 38 39 40 40 40 39 39
26 27 28 30 30 30 30 30 29 30 30 28 27 26 26 25 24 23 23 23 22 21 19 17 15 14 13 11 10 9 8 9 9 7 6 4 3 2 2 4 6 8 10 12 13 15 18 20 21 22 22 22 21 20 19 19 20 21 22 25 27 29 30 32 33 32 32 33 35 35 33 30 26 24 24 26 28 29 31 33 36 38 40 41 40
26 27 28 29 29 29 29 28 28 29 28 26 25 24 23 23 22 22 22 21 21 20 19 17 16 16 15 14 13 11 11 11 10 9 8 7 6 4 3 1 1 3 4 6 8 9 11 13 16 18 20 22 23 23 22 21 21 20 20 21 23 25 27 31 32 31 32 34 34 36 38 38 37 32 29 27 26 28 28 28 30 33 36 39 39
24 26 27 28 28 28 27 27 27 26 25 24 24 23 22 21 21 20 20 20 20 18 17 16 16 16 15 14 13 13 13 12 10 9 8 8 7 7 6 4 3 3 3 3 4 5 6 8 10 13 15 18 20 21 22 22 23 22 22 22 21 22 24 27 29 29 31 33 33 34 36 38 40 41 40 36 32 32 33 32 31 31 33 35 36
23 25 26 26 26 26 26 25 25 24 23 22 22 22 21 20 19 18 19 19 18 17 16 16 15 15 14 13 13 13 13 12 10 9 9 9 9 9 9 8 7 6 6 6 6 5 5 6 7 8 10 12 14 17 19 21 22 23 23 23 22 23 23 24 26 27 29 31 32 34 36 37 39 40 42 44 42 39 38 38 35 33 34 35 33
22 23 24 25 25 24 23 23 22 22 21 20 20 19 18 18 16 16 18 17 16 15 14 14 14 13 13 12 12 12 12 11 10 9 10 10 10 11 11 11 11 10 9 9 9 8 6 5 6 7 8 9 11 13 15 18 20 22 23 24 24 25 25 25 26 27 28 29 31 33 35 36 38 39 40 42 44 44 43 43 41 39 39 39 37
20 21 23 23 23 22 21 21 21 20 19 17 17 17 16 15 14 15 16 15 14 14 13 13 12 12 12 12 11 11 10 8 7 8 9 9 10 11 11 11 12 11 11 11 11 11 10 9 7 6 7 9 11 12 14 15 17 20 22 24 25 26 27 27 28 28 28 29 30 31 34 36 37 39 39 38 40 43 44 45 44 42 43 44 42
19 20 21 21 21 20 19 19 18 17 15 15 15 14 13 13 12 12 13 12 12 11 11 11 11 11 11 10 10 9 8 6 6 7 8 8 9 10 9 10 10 10 10 10 10 11 11 11 11 10 10 10 11 12 13 14 16 18 20 22 24 25 26 27 28 29 29 30 31 31 32 34 35 37 38 38 39 41 43 46 45 43 44 45 42
19 19 19 19 19 18 17 16 15 14 14 13 13 12 11 11 10 10 11 10 10 9 8 8 8 8 9 9 9 8 7 7 7 8 8 8 9 8 7 8 8 8 9 10 10 11 11 11 11 12 12 13 13 13 13 13 15 17 19 21 22 24 25 26 27 28 29 29 30 31 32 33 35 35 35 36 38 39 42 46 46 44 46 47 44
18 19 18 17 17 16 14 13 12 12 12 11 10 10 9 9 8 8 8 8 6 6 5 5 6 7 7 7 7 7 7 8 8 9 9 9 10 9 9 9 9 10 11 11 11 12 12 12 12 12 12 13 14 14 15 15 15 16 17 19 20 22 24 26 26 27 28 29 29 30 32 33 34 34 34 35 35 37 39 42 43 44 46 47 46
18 18 17 16 15 13 12 11 10 10 9 8 8 7 6 5 5 5 6 5 5 5 5 5 6 7 6 5 5 5 6 7 8 9 9 10 10 10 11 11 11 12 12 12 12 12 12 12 12 12 12 13 13 14 14 15 16 16 17 18 18 20 22 24 26 27 28 29 29 30 31 33 33 33 33 34 34 35 37 38 39 41 43 44 45
18 17 16 14 12 11 9 8 8 7 7 6 4 3 3 4 6 6 6 6 5 5 6 6 7 7 6 5 4 4 4 5 6 7 8 9 11 11 11 11 11 12 12 12 13 13 14 14 14 14 14 14 15 15 15 15 16 16 17 18 18 19 20 21 22 25 28 29 30 30 32 33 34 33 33 34 33 34 35 35 36 38 39 41 42
17 15 14 12 10 9 7 5 5 5 4 4 5 7 7 6 7 7 7 7 7 6 7 7 7 7 6 5 4 4 3 4 5 6 7 9 9 10 11 11 11 12 12 12 13 14 14 15 16 17 17 17 17 18 18 18 18 18 18 19 19 20 21 21 21 23 24 27 29 31 32 34 34 34 34 34 34 34 34 34 35 36 36 39 40
16 14 12 10 8 6 4 3 3 4 5 6 7 6 6 6 6 7 6 6 6 6 7 7 6 6 5 5 4 3 3 3 3 4 5 6 6 7 9 10 10 12 13 13 14 14 15 16 16 17 17 18 19 20 21 21 21 21 21 21 21 21 22 22 22 23 24 24 26 27 30 32 34 35 35 34 34 34 35 35 35 35 35 38 40
16 14 12 10 7 5 3 3 5 6 6 5 5 4 4 4 4 4 4 4 5 5 5 5 4 4 4 4 3 3 3 3 3 4 4 5 6 7 7 8 9 10 11 12 14 15 16 17 18 19 19 19 20 21 22 23 23 24 24 24 24 24 25 24 23 24 25 25 26 27 27 28 30 32 35 36 36 35 36 36 36 36 35 37 39
16 14 12 10 8 6 5 6 6 6 6 5 5 4 3 2 2 2 3 4 5 5 5 6 6 6 6 6 6 6 6 6 7 7 8 9 10 10 11 12 12 12 13 13 14 15 16 17 19 20 22 22 23 23 24 24 24 25 25 26 27 27 28 28 27 26 26 27 28 29 29 28 27 29 30 32 35 36 37 37 37 37 37 38 38
15 14 13 12 11 10 9 9 8 8 8 7 6 4 3 1 0 1 3 4 5 6 7 8 8 9 9 9 10 10 10 11 11 12 12 12 13 14 14 15 16 16 17 17 17 17 18 19 19 20 21 23 24 25 26 27 27 27 27 27 28 28 29 30 30 30 30 30 30 31 31 30 29 30 30 29 30 31 34 37 38 39 39 39 38
15 15 15 15 14 12 11 10 10 9 8 7 6 5 3 2 2 1 2 3 4 5 6 7 8 9 10 10 11 12 13 14 15 15 16 17 17 18 18 18 19 19 20 20 21 21 21 22 22 23 23 23 24 25 26 28 29 30 31 31 31 31 32 32 32 33 33 33 34 34 34 33 32 32 33 31 30 29 30 32 35 37 40 41 39
16 16 17 17 15 13 11 11 11 10 9 8 7 6 5 4 3 2 2 3 4 5 6 7 8 9 10 11 12 13 14 16 17 17 18 19 19 20 21 22 22 22 22 22 23 24 24 25 25 26 27 27 28 28 29 30 31 32 34 34 35 36 37 37 37 37 36 36 36 37 37 36 35 35 36 34 33 32 31 31 32 32 37 40 40
18 18 18 18 16 14 13 13 12 10 9 9 8 7 6 4 3 3 4 4 5 6 7 8 9 10 12 13 15 16 17 18 19 20 21 21 22 23 24 25 25 26 26 26 27 28 29 29 30 31 31 32 33 33 34 34 35 35 37 37 38 39 40 41 41 42 41 41 40 40 40 39 38 39 39 38 36 35 34 33 34 32 32 35 37
20 20 19 19 17 15 14 13 11 9 8 8 8 7 6 5 5 5 6 6 7 8 9 10 11 12 14 16 17 19 20 21 23 23 24 24 25 26 26 27 28 29 30 30 31 32 33 34 36 37 38 38 39 39 40 40 41 40 41 41 41 41 41 42 43 44 44 44 44 45 44 42 41 41 42 40 38 37 36 35 36 36 34 33 33
22 20 19 19 17 15 13 12 10 10 9 9 9 8 7 6 6 7 7 8 9 11 12 13 14 15 16 18 19 21 22 23 25 25 26 27 27 28 29 30 30 31 32 33 34 35 36 38 39 41 43 44 45 46 46 47 47 47 46 46 45 44 44 43 44 44 44 44 45 46 47 46 45 44 44 43 41 39 38 37 37 38 37 35 34
22 19 18 17 15 13 12 12 12 11 11 10 9 8 7 7 7 8 9 11 13 14 15 16 17 18 19 20 22 23 25 26 27 27 28 28 29 30 31 32 33 34 34 35 37 38 39 41 42 44 45 47 48 49 51 51 51 51 50 49 49 49 48 47 46 46 45 45 45 46 47 48 48 47 47 46 45 43 41 40 39 38 38 38 38
20 18 16 15 14 13 14 14 13 12 11 10 9 8 8 8 9 10 12 14 16 18 19 20 20 20 22 23 25 27 28 29 30 30 30 30 30 31 32 33 35 36 36 38 39 40 41 43 44 46 47 49 50 51 52 53 52 52 51 50 50 50 50 50 49 49 48 48 47 47 47 48 48 49 49 48 48 46 45 44 42 39 37 37 39
19 17 16 15 14 15 16 16 14 12 11 10 9 10 10 11 12 14 15 17 18 20 21 22 21 22 24 26 28 30 31 32 33 33 32 32 32 33 33 34 35 37 38 39 41 42 44 45 46 47 49 50 51 52 52 52 52 51 51 50 49 48 48 48 49 50 50 50 50 50 49 49 49 49 49 49 49 49 48 47 46 43 39 38 38
18 17 16 15 15 15 16 15 14 12 11 11 12 13 13 14 15 16 17 18 19 20 22 22 22 23 25 28 30 31 33 34 35 35 34 34 34 34 35 35 36 37 39 40 42 43 45 46 47 48 49 50 51 52 52 52 51 51 50 49 48 48 47 47 48 49 51 51 50 50 50 50 50 50 50 50 50 51 50 49 49 47 44 41 39
17 16 15 14 14 14 15 15 13 13 13 13 14 15 16 17 17 17 18 19 20 21 22 23 23 24 27 29 31 32 34 35 35 35 35 35 35 36 37 38 38 39 40 41 43 44 45 46 47 48 49 50 50 51 51 52 52 51 50 48 48 49 49 49 49 50 52 53 52 52 51 50 50 51 51 51 51 51 51 51 51 50 48 46 43
15 14 13 13 13 13 13 14 14 15 15 16 17 18 19 19 19 20 21 22 22 23 23 23 24 26 29 30 32 33 34 35 35 35 35 36 38 38 39 40 41 42 42 43 44 44 45 46 47 48 49 50 51 52 52 52 53 53 51 48 47 49 51 51 52 51 53 54 54 54 53 52 52 51 51 52 52 53 53 53 52 52 51 49 47
12 13 13 13 14 14 15 15 15 16 17 18 19 21 22 22 22 23 23 23 23 23 23 24 26 28 30 31 32 33 34 34 34 35 37 38 39 40 41 42 42 43 43 44 45 45 46 47 48 49 51 53 54 54 53 53 53 53 52 49 48 51 53 54 55 55 54 55 55 54 54 55 54 52 50 50 50 52 52 53 53 53 52 52 51
11 11 12 12 13 13 14 14 14 15 16 17 19 20 22 23 23 24 23 23 22 23 24 26 29 30 31 31 32 33 33 34 36 37 38 39 39 41 41 42 42 43 44 45 46 47 48 49 49 51 53 55 56 55 53 53 53 52 50 48 48 51 53 54 56 56 56 55 55 54 55 56 56 54 51 50 49 48 49 50 51 52 54 55 54
12 12 12 12 13 13 14 14 15 15 15 16 16 17 19 20 21 22 22 22 23 25 27 29 30 30 30 31 31 32 34 36 37 38 39 39 40 41 41 41 42 43 44 45 47 48 49 50 50 51 53 56 56 52 49 50 49 47 45 44 44 47 50 53 56 56 55 56 56 56 55 55 56 55 53 50 48 46 46 46 48 50 53 55 56
12 12 13 13 14 15 16 17 17 16 16 16 15 16 17 19 20 21 22 24 26 28 30 30 30 30 30 30 32 33 35 37 37 38 39 40 41 41 41 42 42 43 45 46 47 48 49 50 51 51 52 54 53 48 44 44 43 41 40 40 42 45 47 50 52 53 52 53 53 52 51 51 52 54 53 50 45 43 44 46 48 49 51 52 55
10 11 13 13 15 17 19 20 19 18 17 16 16 16 17 18 20 22 24 26 29 30 31 31 30 30 30 31 33 35 36 37 38 39 40 41 41 41 41 42 43 45 46 46 47 48 48 49 51 50 49 51 50 45 42 41 39 37 37 37 38 40 42 44 46 47 46 46 46 45 44 45 48 51 52 49 43 41 45 48 50 51 51 52 54
12 13 14 15 17 19 20 20 20 19 18 17 17 17 17 18 20 21 24 26 29 30 31 30 30 30 31 33 34 35 36 37 38 39 40 41 41 41 42 42 43 45 46 47 47 49 49 48 48 48 46 46 47 44 40 39 37 35 33 33 34 36 38 40 41 41 40 40 40 38 36 36 40 42 43 41 38 38 42 46 48 49 51 52 54
14 15 15 17 19 20 20 21 20 20 19 19 18 18 18 20 21 22 25 27 29 30 31 30 30 31 32 34 35 35 36 37 39 39 40 40 41 41 42 42 43 45 46 47 47 49 50 48 45 45 43 42 43 42 38 36 35 31 28 29 31 35 37 38 39 40 40 39 40 40 38 36 37 39 39 38 37 36 39 42 45 46 50 54 55
15 15 16 18 20 21 22 22 22 22 21 20 20 20 20 22 23 25 27 29 30 30 29 30 30 32 33 34 35 35 36 37 38 39 39 40 40 41 42 42 43 44 45 47 47 47 48 46 43 42 41 39 39 39 36 33 31 28 25 26 30 34 37 39 40 42 43 43 41 40 39 35 34 36 37 37 36 36 37 40 43 45 50 55 56
17 17 17 19 20 22 23 23 23 23 23 22 22 22 23 24 25 27 28 29 29 29 28 29 31 33 34 34 34 35 36 37 37 38 39 40 40 40 41 42 43 44 45 46 46 44 45 45 42 40 39 37 35 35 34 31 29 27 25 26 30 34 36 39 42 43 43 44 42 40 38 36 34 36 37 37 37 37 37 39 42 45 48 49 49
19 19 20 21 22 23 24 25 25 25 24 24 23 24 24 25 26 28 29 29 29 28 28 30 32 33 34 34 34 35 35 36 36 37 38 39 39 39 40 40 41 43 44 44 44 42 42 43 41 39 37 34 32 32 31 30 29 28 27 27 30 33 35 37 41 43 43 44 44 44 43 42 39 38 39 39 39 39 39 40 42 43 44 44 44
20 21 22 22 24 25 26 27 27 26 26 25 24 25 25 25 27 28 29 29 28 28 30 32 33 33 33 33 34 35 34 35 35 36 38 39 38 38 38 39 39 41 42 43 42 41 41 41 41 38 35 33 31 31 30 30 30 31 30 29 29 31 32 34 38 42 43 44 45 45 44 43 40 39 39 39 40 40 40 42 43 43 44 44 44
21 22 23 24 25 26 27 28 28 27 26 25 25 26 26 27 28 29 29 28 28 29 31 33 33 33 33 33 34 34 33 34 34 36 37 37 37 37 38 38 37 38 40 41 40 39 39 40 40 38 35 33 33 33 33 33 34 35 33 31 28 28 29 31 34 38 39 41 42 42 41 40 40 40 40 40 41 42 42 42 42 42 43 44 45
22 23 24 25 26 26 27 28 28 27 27 26 27 28 28 28 28 29 28 28 28 30 32 33 33 33 33 33 33 33 32 33 34 35 35 36 35 36 37 37 36 36 37 38 39 38 38 38 39 40 39 38 37 38 38 38 38 38 35 32 30 30 31 32 34 37 38 40 40 39 38 38 38 38 39 40 40 40 39 38 39 40 41 43 45
23 24 25 26 26 27 28 29 28 28 27 28 28 28 28 28 29 28 27 28 29 31 32 32 32 32 32 32 33 32 32 32 33 33 33 33 33 34 35 35 35 34 35 36 37 37 37 38 40 41 42 43 42 42 42 42 41 40 37 35 36 37 38 38 38 40 41 42 42 40 38 38 38 38 39 40 41 40 38 38 39 39 40 42 44
24 24 25 26 26 28 29 29 29 28 28 28 28 28 28 29 28 28 27 28 30 32 32 32 31 31 31 31 32 32 32 32 32 32 32 32 31 31 33 33 33 33 34 35 36 36 37 39 42 43 44 44 44 44 44 43 41 40 40 41 41 42 42 42 43 44 44 45 45 43 41 40 40 40 41 42 42 42 41 40 40 39 40 41 42
24 24 25 26 27 28 29 29 28 28 28 28 28 27 28 28 28 28 28 29 30 31 31 31 31 31 31 31 31 31 31 32 32 31 31 31 30 29 30 31 30 31 34 36 36 37 38 40 42 43 44 45 45 44 43 42 41 40 41 41 40 41 42 43 45 46 46 46 45 44 43 42 41 42 44 44 44 43 43 43 42 41 41 41 41
24 25 26 27 27 29 29 29 28 29 29 28 27 26 27 27 27 28 29 30 31 31 31 30 30 30 30 30 30 30 30 31 31 31 30 29 28 28 29 31 30 29 31 34 35 35 37 38 39 41 42 43 44 43 41 40 38 36 35 35 37 38 39 40 41 41 42 43 42 42 42 42 42 43 44 45 46 46 47 47 45 43 41 40 40
24 25 27 27 29 30 30 29 29 29 29 28 26 25 26 27 27 28 29 30 30 31 30 30 29 29 29 30 30 29 29 29 30 30 30 29 27 24 24 28 30 29 28 30 31 32 33 34 36 37 37 37 39 40 38 37 35 34 33 34 35 36 35 36 36 35 37 39 40 40 41 41 42 44 45 46 48 49 48 47 45 43 41 40 39
25 26 27 29 30 30 30 29 29 29 28 27 26 25 26 27 27 28 29 29 30 30 30 30 29 29 29 29 29 29 29 29 28 28 29 30 29 25 21 20 25 28 28 29 29 29 29 29 31 34 34 34 34 35 35 35 36 35 34 34 34 34 33 34 35 35 37 40 40 41 43 43 43 44 44 46 47 48 47 46 45 43 41 40 40
Wind_Direction
76 74 73 71 72 81 84 88 97 109 111 109 102 86 74 66 64 95 108 137 185 195 201 207 210 208 210 212 214 218 222 226 232 236 239 243 246 247 249 250 247 246 251 257 261 265 268 269 270 270 271 272 274 276 276 276 277 278 279 278 276 274 273 273 272 269 263 258 255 254 253 252 251 250 250 251 251 251 251 253 254 255 255 256 256
94 91 91 91 91 93 92 92 95 94 94 91 84 78 74 73 74 75 76 78 91 104 133 174 188 193 205 212 215 221 223 226 230 233 235 238 241 242 243 245 244 241 241 244 249 253 258 261 263 266 269 271 273 274 275 275 274 274 272 271 271 271 271 272 271 267 262 260 259 258 256 254 252 251 252 253 251 250 251 253 254 254 255 256 256
100 96 94 94 93 95 94 92 90 88 87 86 84 83 81 79 77 75 74 75 76 75 77 84 88 95 123 166 189 203 205 209 215 222 230 236 240 243 244 246 247 247 248 249 250 251 253 254 256 259 264 268 269 270 270 271 272 271 270 269 270 270 268 268 267 266 264 263 260 256 256 258 257 255 255 254 253 253 254 254 254 254 255 256 256
101 98 96 96 95 94 93 91 90 90 89 87 85 84 83 81 80 79 78 77 77 76 75 76 75 73 74 80 88 114 146 164 180 190 206 222 234 241 246 248 249 250 250 251 251 252 252 252 252 252 253 259 265 266 266 266 268 268 269 270 270 269 267 267 267 266 264 261 256 252 253 257 258 259 259 259 258 257 256 256 256 255 255 255 255
104 102 101 100 97 94 92 92 92 90 87 85 84 82 82 82 81 80 79 79 78 77 76 76 78 78 75 76 75 78 95 110 123 134 150 177 205 225 239 245 251 255 256 255 255 254 255 254 252 249 246 250 257 261 263 264 266 266 268 269 269 269 270 270 269 266 265 264 259 253 250 252 257 263 266 267 264 261 260 259 258 257 256 255 255
108 106 104 102 100 97 94 92 91 88 85 83 82 81 80 80 79 78 78 78 76 76 75 75 76 77 76 77 76 74 77 82 84 85 92 99 104 129 211 232 239 246 250 253 255 255 255 255 253 249 246 248 252 256 258 260 263 265 266 268 269 270 272 272 270 269 268 268 263 259 255 254 260 268 273 276 274 270 267 264 261 259 257 255 255
111 109 107 105 103 99 95 92 89 87 85 84 83 81 79 78 77 76 75 74 74 73 73 72 72 71 68 67 66 63 60 61 59 56 59 62 65 66 55 23 263 240 234 238 242 244 246 249 251 251 251 250 251 253 255 257 260 262 263 265 267 269 271 271 271 271 270 268 266 265 262 259 259 262 267 275 281 279 273 271 268 263 259 256 255
113 111 108 106 103 100 96 93 89 88 86 85 82 79 76 75 74 73 73 73 72 71 71 71 68 66 63 59 56 54 51 50 47 39 39 43 47 52 53 42 16 347 316 290 272 260 253 250 250 252 254 255 255 254 254 256 257 259 260 262 263 264 268 272 273 273 271 270 269 268 267 265 262 261 262 265 271 276 275 273 272 270 266 261 258
115 112 110 107 104 101 98 95 92 89 85 80 77 74 71 69 68 67 68 69 70 69 68 69 68 67 66 61 57 54 49 46 42 37 36 35 35 38 41 42 34 18 2 351 343 328 299 279 268 260 257 258 260 259 258 257 256 257 258 259 260 261 263 268 271 272 272 272 272 270 269 269 267 265 262 261 263 268 272 271 271 272 270 266 264
118 116 113 110 107 103 99 96 91 85 80 75 72 69 66 64 61 60 63 65 66 66 63 65 67 67 67 66 62 59 55 51 49 47 46 43 41 39 37 37 38 33 26 19 13 7 354 328 299 281 272 265 263 263 261 260 257 256 255 255 257 258 259 261 264 267 268 269 270 269 269 269 269 268 264 263 263 264 267 269 270 271 270 270 270
123 120 117 113 108 105 100 94 88 83 78 72 68 64 62 60 54 53 60 62 61 61 57 57 59 57 59 62 61 63 63 59 56 55 54 50 48 46 43 41 41 39 35 30 24 20 14 6 355 330 305 289 280 274 269 266 262 259 257 255 254 255 256 258 260 262 263 264 265 266 267 268 269 269 268 268 268 268 268 270 271 272 273 273 273
128 123 119 115 111 106 100 92 86 81 75 68 64 60 57 57 52 49 56 60 56 54 49 46 46 45 49 50 51 58 63 60 60 60 60 55 51 52 51 48 47 44 40 35 29 24 19 13 7 360 349 335 319 305 294 284 276 269 264 260 257 256 256 257 258 260 261 262 263 263 265 267 267 268 270 271 271 271 272 273 274 274 274 274 275
132 127 123 119 114 107 98 89 83 76 69 63 60 56 53 54 50 44 51 57 53 50 47 43 45 46 47 43 42 47 45 43 47 51 53 51 49 48 46 43 38 34 30 25 22 17 11 8 3 359 355 350 345 338 329 315 300 288 279 272 266 262 260 259 259 260 260 261 262 263 264 265 266 267 270 271 271 273 273 273 274 275 274 275 275
137 133 130 124 116 107 96 85 77 70 65 61 57 53 49 48 47 44 54 65 63 63 62 59 61 60 55 48 42 39 33 31 33 35 36 33 30 28 27 27 23 21 21 18 16 12 6 3 0 356 351 347 344 341 339 335 328 319 308 296 286 277 269 264 263 262 261 261 261 262 262 263 264 265 267 269 271 272 272 272 274 275 274 275 274
144 140 136 129 119 106 93 83 76 70 63 54 47 46 43 51 64 67 77 91 94 96 98 93 86 80 72 60 45 33 25 23 23 25 25 21 19 17 16 15 13 13 14 12 10 7 4 2 358 355 352 347 343 340 337 334 333 332 328 323 315 304 291 280 273 268 264 262 261 261 262 261 262 263 264 266 268 269 271 272 274 274 274 274 274
151 147 141 132 121 109 98 90 79 65 54 50 60 105 135 132 121 111 110 118 117 114 109 97 90 85 83 78 64 48 29 20 17 16 16 14 12 10 9 10 9 7 5 3 1 358 356 355 353 353 352 349 346 343 339 336 332 330 328 327 327 323 317 308 297 284 276 270 265 263 262 261 262 262 263 263 264 265 267 270 271 270 271 272 273
157 154 146 137 129 123 113 91 69 62 78 125 152 158 154 138 123 118 121 124 118 107 93 83 79 79 81 81 75 64 43 26 18 13 13 10 3 1 1 359 358 357 356 356 356 354 351 349 347 347 347 347 346 344 342 340 337 334 330 327 325 323 322 323 320 310 300 289 280 273 268 265 263 263 263 263 263 263 264 265 267 267 268 268 269
164 162 156 150 148 141 118 89 95 132 156 162 159 152 141 127 119 118 117 110 97 86 77 73 73 74 76 77 73 65 54 39 26 14 8 359 349 348 348 344 342 342 342 343 343 343 342 341 340 339 339 339 339 338 338 336 336 334 332 330 328 324 320 320 321 319 317 311 303 294 284 276 271 267 265 264 263 263 262 262 263 264 265 266 267
173 171 170 170 168 163 147 150 165 169 171 169 159 150 143 134 121 110 92 75 67 64 63 64 65 64 60 60 54 47 39 25 13 2 351 344 340 341 340 335 333 331 330 329 328 328 328 329 331 331 332 332 331 331 330 329 329 329 329 328 327 325 321 319 318 316 316 316 313 310 304 296 287 279 272 268 266 264 263 262 262 262 262 263 266
181 181 185 188 185 185 183 185 189 188 189 186 176 171 161 144 103 64 35 30 28 22 24 23 22 23 19 16 11 3 0 355 350 346 342 340 339 337 336 334 332 331 329 326 323 321 319 318 320 322 323 324 325 326 326 324 323 323 323 322 322 322 320 319 318 315 315 314 311 309 309 309 306 298 289 281 274 269 267 264 262 262 261 261 264
190 193 197 198 195 194 194 199 202 200 200 196 187 186 183 178 14 12 3 5 7 7 10 9 7 6 1 356 354 351 349 346 343 342 339 338 336 334 332 331 331 330 329 328 326 324 321 319 317 316 316 317 318 319 320 320 320 320 320 319 318 317 316 316 315 314 313 313 310 307 306 307 308 306 302 298 290 282 276 270 266 264 262 260 262
200 204 205 204 201 200 201 204 208 207 207 205 201 208 219 234 263 312 342 350 354 357 359 356 354 350 346 344 342 340 340 338 338 338 337 336 335 333 332 330 329 328 327 327 326 324 323 321 320 319 318 317 316 316 316 315 315 316 316 317 317 316 314 313 312 311 311 311 309 307 305 305 305 303 301 301 300 296 290 282 275 270 266 263 262
209 210 211 209 205 207 210 212 215 216 217 218 217 222 229 239 258 288 321 329 333 334 336 337 337 336 334 335 335 334 335 334 333 333 333 332 332 331 330 329 328 327 326 326 324 322 321 320 319 319 318 318 317 316 315 313 312 312 312 311 312 312 311 310 309 309 308 307 306 305 304 304 304 301 299 299 299 298 297 294 288 281 274 269 265
213 214 215 214 210 214 219 219 221 224 224 223 223 228 237 251 273 293 306 308 312 318 323 327 329 331 330 329 329 329 330 329 328 328 328 327 327 327 327 326 325 324 323 322 322 321 320 319 318 317 317 317 316 315 314 312 311 310 309 308 307 306 306 305 305 305 305 304 302 301 300 301 301 298 297 296 296 296 296 295 294 291 285 279 273
213 216 216 215 215 220 223 225 232 240 241 236 234 242 251 266 281 290 296 302 309 315 320 324 325 327 326 325 324 324 324 324 323 323 323 323 323 323 323 322 321 320 320 319 319 318 318 318 317 317 316 316 315 314 312 311 310 309 308 306 305 303 301 300 299 299 299 299 298 297 296 296 295 294 294 294 293 293 294 293 292 291 291 288 282
217 218 218 219 221 224 226 232 246 253 249 244 245 252 259 267 277 285 291 299 308 313 316 317 317 318 319 319 320 320 320 320 319 319 320 320 320 320 319 319 318 317 317 317 317 317 316 316 315 316 316 315 314 313 312 311 310 309 307 306 304 302 300 298 296 294 293 292 291 291 291 291 289 289 289 290 290 290 290 289 289 289 290 290 288
223 222 221 221 223 226 231 241 249 246 240 242 249 258 265 272 280 290 298 303 307 308 308 309 310 312 314 316 318 319 319 318 318 318 318 318 318 317 317 316 316 316 316 316 315 315 315 315 314 314 313 313 312 311 311 311 310 309 308 306 304 302 300 297 295 293 290 288 286 285 285 285 285 285 285 286 286 287 286 285 284 285 286 287 287
223 222 222 223 227 233 239 244 242 236 235 243 254 262 269 278 286 295 300 301 302 301 300 301 304 309 313 316 318 319 319 318 317 317 316 316 315 314 314 314 314 314 314 314 314 313 313 312 312 311 311 310 309 309 308 308 308 308 308 306 305 303 300 298 295 293 290 288 286 283 281 280 280 281 281 282 282 283 283 282 281 280 280 280 282
220 222 224 228 234 240 243 240 234 231 237 248 257 265 272 280 286 291 292 292 292 291 291 294 299 305 311 314 316 316 317 317 316 315 314 313 312 311 311 311 311 311 311 311 311 311 310 310 309 309 308 307 307 306 306 306 306 306 306 305 304 303 301 299 296 294 291 288 286 284 282 280 278 276 276 277 277 278 279 280 279 278 277 275 274
221 224 227 233 241 245 244 238 232 237 251 260 266 273 279 282 284 285 284 283 283 282 285 289 295 302 308 311 312 313 314 313 312 311 310 309 308 308 308 307 307 308 308 308 308 308 308 308 307 307 306 306 305 305 305 305 305 305 304 303 301 299 298 296 295 293 291 289 287 285 283 281 279 276 274 272 272 273 274 276 276 276 276 274 272
222 226 229 236 241 241 239 237 239 251 262 269 273 275 275 275 276 275 273 273 273 275 279 283 289 297 303 306 308 310 310 309 307 306 306 306 306 305 305 305 305 305 305 306 306 306 306 306 306 306 305 304 303 303 303 302 301 301 300 299 298 296 295 293 292 290 289 289 287 285 284 282 280 278 277 274 272 271 270 271 272 272 273 272 271
222 226 229 230 231 232 236 240 247 256 261 266 269 267 265 264 264 264 264 265 267 270 274 277 284 294 300 302 304 305 305 304 304 304 304 304 304 304 305 305 305 306 306 306 307 307 307 307 306 305 305 304 303 302 301 299 298 297 296 296 295 293 291 290 289 288 287 287 286 285 284 282 280 278 277 276 275 273 271 269 269 270 270 269 268
220 224 224 226 227 229 235 240 246 252 255 258 259 258 259 260 260 261 261 263 265 268 271 277 286 294 297 299 300 302 302 303 303 303 303 303 304 304 305 305 306 306 307 307 308 308 308 308 307 306 305 304 304 302 300 299 297 295 294 294 292 290 288 287 286 285 284 284 284 283 283 282 280 279 277 275 275 275 274 272 270 270 269 268 266
221 226 225 226 226 227 233 240 248 254 255 255 256 258 261 262 262 262 261 262 265 269 276 284 290 293 295 297 299 300 301 302 302 302 303 304 304 305 305 305 306 307 308 308 309 309 309 309 308 306 306 305 304 302 301 299 298 296 295 294 292 289 287 285 284 283 283 283 282 282 282 281 279 278 276 274 273 274 275 275 274 272 269 267 266
231 235 235 237 238 240 246 251 258 262 262 262 263 266 268 268 267 266 266 268 273 280 286 290 291 293 295 297 299 300 300 302 303 304 305 306 306 306 306 307 307 308 309 310 310 310 309 309 308 307 306 305 304 304 303 301 299 298 296 294 290 287 285 284 284 283 282 282 282 282 282 281 280 279 276 274 273 273 273 273 274 273 271 269 267
241 244 248 253 257 259 261 263 267 268 266 265 267 270 273 274 275 276 278 282 286 289 291 292 293 296 297 298 299 301 302 304 305 306 307 307 307 307 308 309 309 310 310 310 310 310 309 309 309 308 308 306 305 306 306 304 303 301 298 294 291 289 288 287 286 285 284 283 282 281 281 280 279 278 277 275 274 273 271 269 269 269 270 270 269
243 247 253 259 264 266 267 268 268 266 263 262 263 265 270 274 278 282 285 287 289 290 291 293 295 296 297 300 302 304 306 307 308 308 308 308 308 308 310 310 310 310 310 310 311 311 311 312 311 311 310 308 306 308 309 307 306 304 302 299 296 294 293 291 290 290 289 288 286 285 284 283 282 281 280 279 278 275 272 270 268 267 267 268 268
245 250 255 259 263 264 264 264 262 260 259 259 259 262 268 274 280 285 289 290 291 292 294 295 296 297 300 303 306 308 309 309 309 309 309 308 309 310 311 311 311 310 311 312 314 314 314 314 314 313 312 309 307 309 311 309 307 306 304 301 299 297 295 294 294 294 293 291 290 289 288 287 286 286 286 286 283 279 275 272 269 268 267 265 265
252 257 260 260 262 262 260 260 259 259 258 257 258 264 273 282 289 293 293 293 293 294 296 296 297 300 304 306 308 310 310 310 310 309 309 309 310 311 311 311 311 312 314 315 317 316 316 315 315 313 311 309 308 309 311 310 308 308 306 303 299 297 295 294 294 294 293 293 293 293 292 290 287 287 288 287 284 281 277 274 271 269 267 264 261
256 261 262 260 260 259 259 260 260 259 258 257 261 270 282 291 296 296 295 295 294 295 295 296 299 303 306 308 309 310 310 310 310 309 310 310 311 311 311 312 313 315 317 318 318 317 316 315 314 312 310 309 311 312 313 312 309 308 307 304 299 296 295 295 295 295 296 297 297 297 296 294 291 290 289 287 285 282 277 275 273 271 268 265 262
261 265 265 263 261 260 261 261 261 260 259 260 267 279 289 295 297 296 295 295 295 295 295 298 301 305 307 309 310 311 310 310 310 310 310 310 310 311 312 315 317 318 319 318 318 317 315 313 312 311 311 313 315 314 314 313 311 309 310 307 300 297 297 298 297 298 298 297 296 295 294 293 292 290 289 287 285 283 280 277 275 272 271 271 269
260 263 264 263 263 263 263 263 262 261 262 266 275 284 291 295 295 295 296 296 296 297 298 301 304 307 309 310 311 311 311 311 311 311 310 309 311 313 315 318 320 320 319 318 317 316 314 312 311 312 315 318 319 317 316 316 314 313 314 311 303 298 297 297 297 297 297 296 296 296 296 296 293 290 289 286 283 282 280 277 274 273 273 272 271
255 257 259 261 263 263 263 263 263 263 266 272 281 288 292 294 295 295 296 296 296 298 300 304 307 308 310 311 311 311 311 311 312 311 309 310 314 316 319 320 321 321 319 317 316 315 314 312 313 316 320 322 321 320 320 320 319 319 319 317 310 302 296 294 294 295 297 298 299 300 301 303 301 296 292 289 285 283 282 279 276 275 274 272 271
252 255 258 261 262 263 263 262 263 265 270 278 285 290 293 293 294 295 296 295 296 299 302 305 308 309 311 312 311 311 311 312 311 310 310 313 317 319 321 322 322 322 319 316 315 315 315 315 317 320 324 326 325 325 324 324 324 323 321 320 317 311 305 300 297 297 300 303 305 307 309 310 307 302 295 289 286 284 283 282 280 279 275 272 270
254 257 259 261 262 262 261 262 264 268 274 282 287 290 291 292 293 294 294 294 296 300 303 306 308 310 312 311 310 311 311 311 311 311 313 316 320 321 322 323 323 322 318 316 316 317 317 319 322 325 328 329 329 327 326 325 325 323 321 320 319 317 314 310 303 299 301 304 307 309 309 305 302 299 296 292 290 288 284 282 282 281 277 272 269
258 259 259 258 258 259 260 262 266 271 277 284 287 288 289 292 293 293 292 294 298 302 305 307 309 311 312 311 310 310 311 311 311 313 316 319 322 322 322 323 323 321 319 317 318 319 322 325 326 326 326 326 326 325 323 321 321 320 321 322 320 316 315 312 305 301 301 303 304 305 304 302 301 300 299 297 295 291 287 284 281 279 278 275 270
266 264 260 257 257 260 262 265 269 274 280 283 285 287 289 291 291 290 291 295 300 304 306 308 310 311 311 311 311 311 311 312 313 316 318 320 323 324 323 323 324 322 321 321 322 324 327 326 324 322 321 321 320 319 317 317 318 318 319 320 317 315 314 312 308 306 306 306 306 305 304 303 303 302 301 298 294 290 288 287 285 282 279 277 273
270 265 260 258 259 261 263 266 270 275 280 281 283 286 288 289 288 289 293 298 303 305 307 308 311 312 311 311 311 312 312 313 315 317 319 321 324 325 323 323 325 325 324 326 328 327 326 322 318 317 317 316 316 316 316 317 317 316 316 315 314 312 312 310 308 308 308 307 306 306 305 304 303 303 301 298 294 292 290 289 288 286 283 279 276
270 266 262 262 262 263 264 267 271 275 278 280 282 285 286 285 286 289 295 301 304 305 307 309 311 311 311 311 311 311 312 314 315 317 319 321 325 327 326 325 327 329 329 329 326 321 317 316 313 312 313 312 312 313 314 314 313 313 312 311 309 308 307 306 305 306 305 304 304 304 304 304 303 300 298 295 293 292 290 289 287 286 284 279 276
269 266 264 263 263 263 265 268 271 274 276 279 282 284 283 283 285 291 297 302 304 306 307 310 311 311 310 310 310 311 313 315 316 318 319 320 323 328 329 327 327 329 331 332 328 321 317 314 310 308 309 309 307 309 310 310 311 312 311 308 307 307 306 304 303 301 300 300 301 301 301 300 298 296 295 294 294 293 292 290 288 285 283 280 277
270 267 264 263 264 265 266 268 271 273 276 279 282 281 280 282 287 293 299 302 304 306 308 309 310 309 309 309 310 311 314 316 317 319 320 320 322 324 328 329 328 328 330 334 335 332 329 324 317 312 311 311 311 313 313 311 312 311 309 307 307 307 306 304 301 300 300 300 300 300 300 299 298 297 297 297 297 296 294 291 288 285 283 281 279